KB7STN Weather Reports


time (UTC)temp
C
wind
direction
speed
KPH
gust
KPH
rain 1hr
cm
rain 24hr
cm
rain mn
cm
humidity
%
barometer
mb
20260510151205 18 59 0.0 0.0 0.00 0.00 0.00 29 1012.5
20260510150705 17 59 0.0 0.0 0.00 0.00 0.00 30 1012.5
20260510150205 17 59 0.0 0.0 0.00 0.00 0.00 30 1012.4
20260510145705 17 59 0.0 0.0 0.00 0.00 0.00 30 1012.4
20260510145205 17 59 0.0 0.0 0.00 0.00 0.00 28 1012.4
20260510144706 17 59 0.0 0.0 0.00 0.00 0.00 29 1012.5
20260510144205 16 59 0.0 0.0 0.00 0.00 0.00 32 1012.4
20260510143705 16 59 0.0 0.0 0.00 0.00 0.00 30 1012.4
20260510143205 16 59 0.0 0.0 0.00 0.00 0.00 32 1012.5
20260510142705 16 59 0.0 0.0 0.00 0.00 0.00 29 1012.5
20260510142205 16 59 0.0 0.0 0.00 0.00 0.00 30 1012.4
20260510141705 16 59 0.0 0.0 0.00 0.00 0.00 29 1012.5
20260510141205 15 59 0.0 0.0 0.00 0.00 0.00 31 1012.5
20260510140705 15 59 0.0 0.0 0.00 0.00 0.00 31 1012.4
20260510140206 15 59 0.0 0.0 0.00 0.00 0.00 30 1012.4
20260510135705 14 59 0.0 0.0 0.00 0.00 0.00 34 1012.3
20260510135206 13 59 0.0 0.0 0.00 0.00 0.00 36 1012.3
20260510134706 13 59 0.0 0.0 0.00 0.00 0.00 35 1012.3
20260510134206 12 59 0.0 0.0 0.00 0.00 0.00 34 1012.3
20260510133705 12 59 0.0 0.0 0.00 0.00 0.00 37 1012.2
20260510133206 12 59 0.0 0.0 0.00 0.00 0.00 38 1012.2
20260510132706 12 59 0.0 0.0 0.00 0.00 0.00 42 1012.2
20260510132206 11 59 0.0 0.0 0.00 0.00 0.00 39 1012.1
20260510131706 11 59 0.0 0.0 0.00 0.00 0.00 40 1012.0
20260510131206 11 59 0.0 0.0 0.00 0.00 0.00 37 1012.0
20260510130706 11 59 0.0 0.0 0.00 0.00 0.00 35 1011.9
20260510130206 11 59 0.0 0.0 0.00 0.00 0.00 36 1011.8
20260510125706 11 59 0.0 0.0 0.00 0.00 0.00 38 1011.8
20260510125206 10 59 0.0 0.0 0.00 0.00 0.00 35 1011.8
20260510124706 10 59 0.0 0.0 0.00 0.00 0.00 36 1011.8
20260510124206 10 59 0.0 0.0 0.00 0.00 0.00 35 1011.8
20260510123706 10 59 0.0 0.0 0.00 0.00 0.00 34 1011.7
20260510123206 11 59 0.0 0.0 0.00 0.00 0.00 39 1011.7
20260510122706 11 59 0.0 0.0 0.00 0.00 0.00 36 1011.7
20260510122206 11 59 0.0 0.0 0.00 0.00 0.00 33 1011.6
20260510121706 11 59 0.0 0.0 0.00 0.00 0.00 33 1011.5
20260510121206 11 59 0.0 0.0 0.00 0.00 0.00 33 1011.5
20260510120706 11 59 0.0 0.0 0.00 0.00 0.00 33 1011.5
20260510120206 11 59 0.0 0.0 0.00 0.00 0.00 32 1011.5
20260510115706 11 59 0.0 0.0 0.00 0.00 0.00 33 1011.5
20260510115206 11 59 0.0 0.0 0.00 0.00 0.00 33 1011.4
20260510114706 11 59 0.0 0.0 0.00 0.00 0.00 33 1011.5
20260510114206 11 59 0.0 0.0 0.00 0.00 0.00 33 1011.3
20260510113706 11 59 0.0 0.0 0.00 0.00 0.00 35 1011.2
20260510113206 11 59 1.6 0.0 0.00 0.00 0.00 34 1011.1
20260510112706 11 59 1.6 3.2 0.00 0.00 0.00 32 1011.1
20260510112206 11 59 0.0 3.2 0.00 0.00 0.00 33 1011.1
20260510111706 11 59 0.0 0.0 0.00 0.00 0.00 32 1011.2
20260510111206 11 59 0.0 0.0 0.00 0.00 0.00 33 1011.1
20260510110706 11 59 0.0 0.0 0.00 0.00 0.00 33 1011.1
20260510110206 11 59 0.0 0.0 0.00 0.00 0.00 32 1011.0
20260510105706 12 59 0.0 0.0 0.00 0.00 0.00 31 1011.0
20260510105206 12 59 0.0 0.0 0.00 0.00 0.00 31 1011.0
20260510104706 12 59 0.0 0.0 0.00 0.00 0.00 32 1010.9
20260510104206 12 59 0.0 1.6 0.00 0.00 0.00 29 1010.9
20260510103706 12 59 0.0 0.0 0.00 0.00 0.00 29 1011.0
20260510103206 12 59 0.0 0.0 0.00 0.00 0.00 29 1010.9
20260510102706 12 59 0.0 0.0 0.00 0.00 0.00 30 1010.9
20260510102206 12 59 0.0 0.0 0.00 0.00 0.00 29 1011.0
20260510101706 12 59 0.0 0.0 0.00 0.00 0.00 29 1010.9
20260510101206 12 59 0.0 0.0 0.00 0.00 0.00 29 1010.9
20260510100706 12 59 0.0 0.0 0.00 0.00 0.00 28 1010.9
20260510100206 12 59 0.0 0.0 0.00 0.00 0.00 29 1010.9
20260510095706 12 59 0.0 3.2 0.00 0.00 0.00 29 1010.9
20260510095206 12 59 0.0 3.2 0.00 0.00 0.00 29 1010.9
20260510094706 12 59 0.0 0.0 0.00 0.00 0.00 30 1010.9
20260510094206 12 59 0.0 0.0 0.00 0.00 0.00 29 1010.9
20260510093706 12 59 0.0 0.0 0.00 0.00 0.00 30 1010.9
20260510093206 12 59 0.0 0.0 0.00 0.00 0.00 29 1010.7
20260510092706 12 59 0.0 0.0 0.00 0.00 0.00 29 1010.7
20260510092206 12 59 0.0 3.2 0.00 0.00 0.00 28 1010.7
20260510091706 12 59 0.0 3.2 0.00 0.00 0.00 28 1010.8
20260510091206 12 59 0.0 0.0 0.00 0.00 0.00 28 1010.7
20260510090706 12 59 0.0 0.0 0.00 0.00 0.00 27 1010.7
20260510090206 12 59 0.0 0.0 0.00 0.00 0.00 30 1010.5
20260510085706 12 59 0.0 0.0 0.00 0.00 0.00 28 1010.6
20260510085206 13 59 0.0 0.0 0.00 0.00 0.00 27 1010.5
20260510084706 13 59 0.0 0.0 0.00 0.00 0.00 28 1010.5
20260510084206 13 59 0.0 1.6 0.00 0.00 0.00 27 1010.6
20260510083706 13 59 0.0 3.2 0.00 0.00 0.00 26 1010.5
20260510083206 13 59 0.0 0.0 0.00 0.00 0.00 26 1010.4
20260510082706 13 59 0.0 0.0 0.00 0.00 0.00 27 1010.4
20260510082206 13 59 0.0 0.0 0.00 0.00 0.00 27 1010.4
20260510081706 13 59 0.0 0.0 0.00 0.00 0.00 27 1010.4
20260510081206 13 59 0.0 0.0 0.00 0.00 0.00 26 1010.4
20260510080706 13 59 0.0 0.0 0.00 0.00 0.00 25 1010.3
20260510080206 13 59 0.0 0.0 0.00 0.00 0.00 25 1010.3
20260510075706 13 59 0.0 0.0 0.00 0.00 0.00 23 1010.3
20260510075206 13 59 0.0 0.0 0.00 0.00 0.00 24 1010.3
20260510074706 13 59 0.0 0.0 0.00 0.00 0.00 24 1010.3
20260510074206 13 59 0.0 0.0 0.00 0.00 0.00 23 1010.3
20260510073706 13 59 0.0 0.0 0.00 0.00 0.00 25 1010.3
20260510073206 13 59 0.0 0.0 0.00 0.00 0.00 24 1010.3
20260510072706 14 59 0.0 0.0 0.00 0.00 0.00 23 1010.3
20260510072206 14 59 0.0 0.0 0.00 0.00 0.00 23 1010.3
20260510071706 14 59 0.0 0.0 0.00 0.00 0.00 24 1010.3
20260510071206 14 59 0.0 0.0 0.00 0.00 0.00 23 1010.3
20260510070706 14 59 0.0 0.0 0.00 0.00 0.00 23 1010.2
20260510070206 14 59 0.0 1.6 0.00 0.00 0.00 22 1010.2
20260510065706 14 59 0.0 1.6 0.00 0.00 0.00 23 1010.1
20260510065206 14 59 0.0 1.6 0.00 0.00 0.00 22 1010.0
20260510064706 14 59 0.0 4.8 0.00 0.00 0.00 22 1009.9
20260510064206 14 59 0.0 4.8 0.00 0.00 0.00 23 1009.9
20260510063706 14 59 0.0 0.0 0.00 0.00 0.00 22 1009.9
20260510063206 13 59 0.0 0.0 0.00 0.00 0.00 23 1009.8
20260510062706 13 59 0.0 0.0 0.00 0.00 0.00 23 1009.7
20260510062206 13 59 0.0 0.0 0.00 0.00 0.00 23 1009.8
20260510061706 14 59 0.0 0.0 0.00 0.00 0.00 23 1009.7
20260510061206 14 59 0.0 0.0 0.00 0.00 0.00 23 1009.7
20260510060706 13 59 0.0 0.0 0.00 0.00 0.00 23 1009.6
20260510060206 13 59 0.0 0.0 0.00 0.00 0.00 23 1009.6
20260510055706 13 59 0.0 0.0 0.00 0.00 0.00 24 1009.6
20260510055206 13 59 0.0 0.0 0.00 0.00 0.00 23 1009.5
20260510054706 14 59 0.0 0.0 0.00 0.00 0.00 23 1009.5
20260510054206 14 59 0.0 0.0 0.00 0.00 0.00 24 1009.5
20260510053706 14 59 0.0 0.0 0.00 0.00 0.00 23 1009.4
20260510053206 14 59 0.0 0.0 0.00 0.00 0.00 23 1009.4
20260510052706 14 59 0.0 0.0 0.00 0.00 0.00 24 1009.3
20260510052206 14 59 0.0 0.0 0.00 0.00 0.00 23 1009.3
20260510051706 14 59 0.0 0.0 0.00 0.00 0.00 23 1009.2
20260510051206 14 59 0.0 3.2 0.00 0.00 0.00 23 1009.3
20260510050706 14 59 0.0 0.0 0.00 0.00 0.00 23 1009.2
20260510050206 14 59 0.0 0.0 0.00 0.00 0.00 23 1009.2
20260510045706 14 59 0.0 1.6 0.00 0.00 0.00 23 1009.2
20260510045206 13 59 0.0 4.8 0.00 0.00 0.00 23 1009.2
20260510044706 13 59 0.0 0.0 0.00 0.00 0.00 24 1009.1
20260510044206 13 59 0.0 0.0 0.00 0.00 0.00 24 1009.0
20260510043706 13 59 0.0 0.0 0.00 0.00 0.00 24 1008.9
20260510043206 13 59 0.0 0.0 0.00 0.00 0.00 24 1008.9
20260510042706 13 59 0.0 0.0 0.00 0.00 0.00 24 1008.8
20260510042207 13 59 0.0 0.0 0.00 0.00 0.00 25 1008.8
20260510041706 13 59 0.0 0.0 0.00 0.00 0.00 23 1008.7
20260510041206 14 59 0.0 0.0 0.00 0.00 0.00 24 1008.6
20260510040706 14 59 0.0 0.0 0.00 0.00 0.00 25 1008.6
20260510040206 14 59 0.0 0.0 0.00 0.00 0.00 25 1008.5
20260510035706 14 59 0.0 0.0 0.00 0.00 0.00 25 1008.5
20260510035207 14 59 0.0 0.0 0.00 0.00 0.00 24 1008.3
20260510034707 14 59 0.0 0.0 0.00 0.00 0.00 23 1008.2
20260510034207 14 59 0.0 0.0 0.00 0.00 0.00 24 1008.1
20260510033707 14 59 0.0 0.0 0.00 0.00 0.00 24 1008.0
20260510033207 15 59 0.0 0.0 0.00 0.00 0.00 24 1008.0
20260510032707 15 59 0.0 0.0 0.00 0.00 0.00 24 1007.9
20260510032207 15 59 0.0 0.0 0.00 0.00 0.00 24 1007.9
20260510031707 15 59 0.0 0.0 0.00 0.00 0.00 23 1007.9
20260510031207 15 59 0.0 0.0 0.00 0.00 0.00 24 1007.8
20260510030707 15 59 0.0 0.0 0.00 0.00 0.00 24 1007.8
20260510030207 15 59 0.0 0.0 0.00 0.00 0.00 23 1007.7
20260510025707 16 59 0.0 0.0 0.00 0.00 0.00 23 1007.6
20260510025207 16 59 0.0 0.0 0.00 0.00 0.00 24 1007.6
20260510024707 16 59 0.0 0.0 0.00 0.00 0.00 23 1007.5
20260510024207 17 59 0.0 0.0 0.00 0.00 0.00 22 1007.5
20260510023707 17 59 0.0 0.0 0.00 0.00 0.00 21 1007.5
20260510023207 17 59 0.0 0.0 0.00 0.00 0.00 21 1007.5
20260510022707 18 59 0.0 0.0 0.00 0.00 0.00 20 1007.5
20260510022207 18 59 0.0 0.0 0.00 0.00 0.00 19 1007.3
20260510021707 18 59 0.0 0.0 0.00 0.00 0.00 17 1007.3
20260510021207 18 59 0.0 0.0 0.00 0.00 0.00 17 1007.3
20260510020707 19 60 0.0 0.0 0.00 0.00 0.00 17 1007.3
20260510020207 19 59 0.0 0.0 0.00 0.00 0.00 17 1007.3
20260510015707 20 59 0.0 0.0 0.00 0.00 0.00 16 1007.2
20260510015207 20 59 0.0 0.0 0.00 0.00 0.00 15 1007.1
20260510014707 20 60 1.6 4.8 0.00 0.00 0.00 15 1007.0
20260510014207 20 60 1.6 4.8 0.00 0.00 0.00 14 1007.0
20260510013707 20 60 0.0 8.0 0.00 0.00 0.00 15 1007.0
20260510013207 20 60 1.6 4.8 0.00 0.00 0.00 15 1007.0
20260510012707 21 59 1.6 4.8 0.00 0.00 0.00 15 1007.0
20260510012207 21 58 1.6 6.4 0.00 0.00 0.00 16 1007.0
20260510011707 21 55 1.6 8.0 0.00 0.00 0.00 16 1007.0
20260510011207 21 58 1.6 6.4 0.00 0.00 0.00 16 1007.0
20260510010707 21 81 1.6 4.8 0.00 0.00 0.00 15 1007.0
20260510010207 21 81 3.2 11.3 0.00 0.00 0.00 15 1007.0
20260510005707 21 59 3.2 12.9 0.00 0.00 0.00 15 1007.0
20260510005207 21 55 1.6 4.8 0.00 0.00 0.00 15 1007.0
20260510004707 21 56 1.6 4.8 0.00 0.00 0.00 15 1007.0
20260510004207 21 55 3.2 4.8 0.00 0.00 0.00 15 1007.0
20260510003707 21 55 3.2 9.7 0.00 0.00 0.00 15 1007.0
20260510003207 21 52 3.2 8.0 0.00 0.00 0.00 15 1007.1
20260510002707 21 34 3.2 8.0 0.00 0.00 0.00 16 1007.0
20260510002207 21 33 3.2 9.7 0.00 0.00 0.00 15 1007.1
20260510001707 21 36 3.2 9.7 0.00 0.00 0.00 15 1007.1
20260510001207 21 44 3.2 12.9 0.00 0.00 0.00 16 1007.2
20260510000707 21 31 3.2 8.0 0.00 0.00 0.00 15 1007.1
20260510000207 21 42 4.8 11.3 0.00 0.00 0.00 16 1007.2
20260509235707 21 74 4.8 12.9 0.00 0.00 0.00 14 1007.2
20260509235207 21 23 3.2 9.7 0.00 0.00 0.00 16 1007.2
20260509234707 21 23 3.2 11.3 0.00 0.00 0.00 16 1007.2
20260509234207 21 55 4.8 11.3 0.00 0.00 0.00 16 1007.2
20260509233707 21 16 4.8 11.3 0.00 0.00 0.00 16 1007.2
20260509233207 21 38 4.8 9.7 0.00 0.00 0.00 16 1007.1
20260509232707 21 53 4.8 17.7 0.00 0.00 0.00 15 1007.1
20260509232207 21 72 4.8 12.9 0.00 0.00 0.00 15 1007.2
20260509231707 21 50 4.8 9.7 0.00 0.00 0.00 15 1007.2
20260509231207 21 67 6.4 11.3 0.00 0.00 0.00 15 1007.3
20260509230707 21 21 6.4 11.3 0.00 0.00 0.00 14 1007.3
20260509230207 21 19 4.8 12.9 0.00 0.00 0.00 15 1007.3
20260509225707 21 126 4.8 9.7 0.00 0.00 0.00 15 1007.3
20260509225207 21 71 4.8 14.5 0.00 0.00 0.00 16 1007.3
20260509224707 21 30 4.8 14.5 0.00 0.00 0.00 17 1007.4
20260509224207 21 68 6.4 16.1 0.00 0.00 0.00 16 1007.4
20260509223707 21 82 6.4 12.9 0.00 0.00 0.00 16 1007.5
20260509223207 21 21 6.4 17.7 0.00 0.00 0.00 16 1007.5
20260509222707 21 37 4.8 14.5 0.00 0.00 0.00 17 1007.6
20260509222207 21 67 3.2 11.3 0.00 0.00 0.00 16 1007.5
20260509221707 21 17 4.8 14.5 0.00 0.00 0.00 16 1007.6
20260509221207 21 59 4.8 11.3 0.00 0.00 0.00 17 1007.6
20260509220707 21 55 4.8 16.1 0.00 0.00 0.00 16 1007.5
20260509220207 21 57 3.2 12.9 0.00 0.00 0.00 17 1007.5
20260509215707 21 51 3.2 12.9 0.00 0.00 0.00 17 1007.6
20260509215207 21 71 3.2 8.0 0.00 0.00 0.00 19 1007.7
20260509214707 21 52 3.2 12.9 0.00 0.00 0.00 17 1007.7
20260509214207 21 32 1.6 11.3 0.00 0.00 0.00 17 1007.8
20260509213707 21 37 1.6 11.3 0.00 0.00 0.00 18 1007.8
20260509213207 21 59 3.2 9.7 0.00 0.00 0.00 18 1007.7
20260509212707 21 77 3.2 12.9 0.00 0.00 0.00 19 1007.8
20260509212207 21 36 3.2 12.9 0.00 0.00 0.00 19 1007.8
20260509211707 21 96 4.8 12.9 0.00 0.00 0.00 18 1007.8
20260509211207 20 44 3.2 11.3 0.00 0.00 0.00 21 1007.8
20260509210707 20 63 3.2 12.9 0.00 0.00 0.00 19 1007.9
20260509210207 20 61 3.2 11.3 0.00 0.00 0.00 19 1007.8
20260509205707 21 30 3.2 11.3 0.00 0.00 0.00 21 1007.9
20260509205207 21 30 3.2 11.3 0.00 0.00 0.00 19 1007.9
20260509204707 21 44 3.2 8.0 0.00 0.00 0.00 19 1007.9
20260509204207 21 46 3.2 8.0 0.00 0.00 0.00 20 1007.8
20260509203707 21 55 4.8 14.5 0.00 0.00 0.00 22 1007.9
20260509203207 21 34 3.2 12.9 0.00 0.00 0.00 21 1008.0
20260509202707 20 46 3.2 8.0 0.00 0.00 0.00 23 1007.7
20260509202207 20 50 4.8 11.3 0.00 0.00 0.00 21 1007.9
20260509201707 21 75 4.8 14.5 0.00 0.00 0.00 21 1007.9
20260509201207 21 134 3.2 14.5 0.00 0.00 0.00 24 1007.9
20260509200707 21 74 3.2 14.5 0.00 0.00 0.00 22 1008.2
20260509200207 21 69 1.6 6.4 0.00 0.00 0.00 25 1008.2
20260509195707 21 70 3.2 8.0 0.00 0.00 0.00 23 1008.1
20260509195207 20 59 3.2 11.3 0.00 0.00 0.00 23 1008.3
20260509194707 20 74 3.2 11.3 0.00 0.00 0.00 22 1008.1
20260509194207 20 58 1.6 12.9 0.00 0.00 0.00 23 1008.1
20260509193707 20 53 1.6 11.3 0.00 0.00 0.00 21 1008.2
20260509193207 20 53 3.2 9.7 0.00 0.00 0.00 24 1008.2
20260509192707 20 18 3.2 11.3 0.00 0.00 0.00 22 1008.2
20260509192207 20 74 1.6 8.0 0.00 0.00 0.00 22 1008.2
20260509191707 20 60 1.6 1.6 0.00 0.00 0.00 26 1008.2
20260509191207 20 60 3.2 12.9 0.00 0.00 0.00 23 1008.3
20260509190707 20 37 3.2 6.4 0.00 0.00 0.00 23 1008.3
20260509190207 20 36 3.2 9.7 0.00 0.00 0.00 23 1008.3
20260509185707 19 34 3.2 12.9 0.00 0.00 0.00 25 1008.3
20260509185207 20 69 1.6 9.7 0.00 0.00 0.00 24 1008.4
20260509184707 20 69 1.6 9.7 0.00 0.00 0.00 24 1008.5
20260509184207 20 69 1.6 6.4 0.00 0.00 0.00 25 1008.5
20260509183707 20 65 1.6 12.9 0.00 0.00 0.00 22 1008.5
20260509183207 20 70 1.6 12.9 0.00 0.00 0.00 27 1008.5
20260509182707 20 41 4.8 8.0 0.00 0.00 0.00 24 1008.4
20260509182207 19 28 4.8 16.1 0.00 0.00 0.00 25 1008.5
20260509181707 19 57 3.2 9.7 0.00 0.00 0.00 24 1008.5
20260509181207 19 78 3.2 11.3 0.00 0.00 0.00 23 1008.5
20260509180707 19 95 3.2 8.0 0.00 0.00 0.00 25 1008.5
20260509180207 18 90 4.8 12.9 0.00 0.00 0.00 24 1008.5
20260509175707 18 74 3.2 11.3 0.00 0.00 0.00 24 1008.6
20260509175207 18 40 3.2 9.7 0.00 0.00 0.00 26 1008.5
20260509174707 18 40 3.2 9.7 0.00 0.00 0.00 26 1008.5
20260509174207 18 41 4.8 8.0 0.00 0.00 0.00 24 1008.5
20260509173707 18 61 4.8 9.7 0.00 0.00 0.00 22 1008.6
20260509173207 18 86 4.8 16.1 0.00 0.00 0.00 22 1008.6
20260509172708 18 53 4.8 12.9 0.00 0.00 0.00 23 1008.5
20260509172207 18 49 3.2 12.9 0.00 0.00 0.00 23 1008.5
20260509171707 18 61 3.2 8.0 0.00 0.00 0.00 27 1008.4
20260509171208 18 34 3.2 8.0 0.00 0.00 0.00 27 1008.5
20260509170708 17 31 3.2 8.0 0.00 0.00 0.00 25 1008.5
20260509170208 17 30 4.8 9.7 0.00 0.00 0.00 25 1008.5
20260509165708 18 60 4.8 9.7 0.00 0.00 0.00 26 1008.4
20260509165208 18 52 4.8 8.0 0.00 0.00 0.00 26 1008.3
20260509164708 17 48 3.2 17.7 0.00 0.00 0.00 26 1008.3
20260509164208 17 49 3.2 17.7 0.00 0.00 0.00 27 1008.4
20260509163759 17 35 4.8 11.3 0.00 0.00 0.00 26 1008.6
20260509163208 17 53 4.8 12.9 0.00 0.00 0.00 27 1008.5
20260509162708 17 64 4.8 16.1 0.00 0.00 0.00 26 1008.5
20260509162208 17 45 4.8 12.9 0.00 0.00 0.00 27 1008.5
20260509161708 17 77 4.8 12.9 0.00 0.00 0.00 28 1008.5
20260509161208 17 64 4.8 14.5 0.00 0.00 0.00 26 1008.4
20260509160708 17 59 4.8 11.3 0.00 0.00 0.00 27 1008.5
20260509160208 17 48 4.8 12.9 0.00 0.00 0.00 27 1008.4
20260509155708 17 62 4.8 11.3 0.00 0.00 0.00 26 1008.5
20260509155208 17 40 6.4 14.5 0.00 0.00 0.00 27 1008.5
20260509154708 17 42 6.4 17.7 0.00 0.00 0.00 26 1008.4
20260509154208 17 63 6.4 14.5 0.00 0.00 0.00 26 1008.5
20260509153708 17 53 6.4 16.1 0.00 0.00 0.00 26 1008.6
20260509153208 17 31 6.4 12.9 0.00 0.00 0.00 26 1008.5
20260509152708 17 77 6.4 16.1 0.00 0.00 0.00 26 1008.4
20260509152208 17 55 6.4 16.1 0.00 0.00 0.00 26 1008.4
20260509151708 17 46 6.4 12.9 0.00 0.00 0.00 26 1008.5